Location: ????????
(55.4000°N, 39.1167°E)
Time: 11:32:01
(UTC+00:00)

COSMOS 2428 - Pass Details

Date: 19 May 2025
Orbit: 845 x 853 km, 70.9° (Epoch: 13 June)

Event Time Altitude Azimuth Distance (km) Brightness Sun altitude
Rises 21:12:13 0° 324° (NW) 3,434 6.9 -14.6°
Reaches altitude 10° 21:14:46 10° 330° (NNW) 2,496 6.1 -14.6°
Maximum altitude 21:20:20 49° 45° (NE) 1,096 3.6 -14.6°
Drops below altitude 10° 21:25:52 10° 121° (ESE) 2,485 4.9 -14.6°
Enters shadow 21:27:59 - 126° (SE) 3,262 5.4 -14.6°
